Weather History for Boulder City, NV

Change the Weather History Date:

Thursday, January 17, 2013

  Actual Average (KLAS) Record (KLAS)
Temperature  
Mean Temperature 47 °F 49 °F  
Max Temperature 59 °F 58 °F 74 °F (2011)
Min Temperature 35 °F 39 °F 20 °F (1949)
Degree Days  
Heating Degree Days 18 16  
Month to date heating degree days 287  
Since 1 July heating degree days 1134  
Cooling Degree Days 0 0  
Month to date cooling degree days 0  
Year to date cooling degree days 0  
Moisture  
Dew Point 11 °F    
Average Humidity 25    
Maximum Humidity 38    
Minimum Humidity 14    
Precipitation  
Precipitation 0.00 in 0.02 in 0.58 in (1988)
Month to date precipitation 0.32  
Year to date precipitation 0.32  
Snow  
Snow 0.00 in 0.00 in T in (1990)
Month to date snowfall 0.0  
Since 1 July snowfall 0.2  
Snow Depth -    
Sea Level Pressure  
Sea Level Pressure 30.36 in    
Wind  
Wind Speed 5 mph (NNW)    
Max Wind Speed 10 mph    
Max Gust Speed -    
Visibility 10 miles    
Events      
T = Trace of Precipitation, MM = Missing Value Source: NWS Daily Summary

Daily Weather History Graph

Daily Weather History Graph

Search for Another Location

Airport:

Trip Planner

Search our weather history database for the weather conditions in past years. The results will help you decide how hot, cold, wet, or windy it might be!

Date:

Astronomy

Jan. 17, 2013 Rise Set
Actual Time 6:48 AM PST 4:51 PM PST
Civil Twilight 6:20 AM PST 5:19 PM PST
Nautical Twilight 5:49 AM PST 5:50 PM PST
Astronomical Twilight 5:18 AM PST 6:21 PM PST
Moon 10:11 AM PST (1/17) 11:31 PM PST (1/17)
Length of Visible Light 10h 58m
Length of Day
10h 02m
Waxing Crescent, 39% of the Moon is Illuminated
Jan 17
Waxing Crescent
Jan 18
First Quarter
Jan 26
Full
Feb 3
Last Quarter
Feb 9
New

Hourly Weather History & Observations

Time (PST) Temp. Windchill Dew Point Humidity Pressure Visibility Wind Dir Wind Speed Gust Speed Precip Events Conditions
12:15 AM 41.0 °F 39.0 °F 14.0 °F 33% 30.39 in 10.0 mi WNW 3.5 mph - N/A   Unknown
12:35 AM 39.2 °F - 14.0 °F 36% 30.38 in 10.0 mi Calm Calm - N/A   Unknown
12:55 AM 41.0 °F 39.0 °F 15.8 °F 36% 30.38 in 10.0 mi NE 3.5 mph - N/A   Unknown
1:35 AM 41.0 °F - 12.2 °F 31% 30.39 in 10.0 mi Calm Calm - N/A   Unknown
1:55 AM 41.0 °F 38.0 °F 12.2 °F 31% 30.39 in 10.0 mi NNW 4.6 mph - N/A   Unknown
2:15 AM 37.4 °F 33.8 °F 12.2 °F 36% 30.39 in 10.0 mi NNW 4.6 mph - N/A   Unknown
2:35 AM 41.0 °F 37.1 °F 14.0 °F 33% 30.39 in 10.0 mi North 5.8 mph - N/A   Unknown
2:55 AM 39.2 °F - 12.2 °F 33% 30.38 in 10.0 mi Calm Calm - N/A   Unknown
3:15 AM 35.6 °F 28.6 °F 12.2 °F 38% 30.38 in 10.0 mi NW 9.2 mph - N/A   Unknown
3:35 AM 37.4 °F 30.8 °F 12.2 °F 36% 30.38 in 10.0 mi NW 9.2 mph - N/A   Unknown
4:15 AM 35.6 °F 30.7 °F 12.2 °F 38% 30.38 in 10.0 mi NNW 5.8 mph - N/A   Unknown
4:35 AM 35.6 °F 30.7 °F 12.2 °F 38% 30.38 in 10.0 mi NNW 5.8 mph - N/A   Unknown
4:55 AM 35.6 °F 30.7 °F 12.2 °F 38% 30.38 in 10.0 mi North 5.8 mph - N/A   Unknown
5:15 AM 37.4 °F 31.4 °F 12.2 °F 36% 30.38 in 10.0 mi North 8.1 mph - N/A   Unknown
5:35 AM 37.4 °F - 10.4 °F 33% 30.38 in 10.0 mi Calm Calm - N/A   Unknown
5:55 AM 35.6 °F - 12.2 °F 38% 30.39 in 10.0 mi Calm Calm - N/A   Unknown
6:15 AM 37.4 °F 31.4 °F 10.4 °F 33% 30.39 in 10.0 mi North 8.1 mph - N/A   Unknown
6:35 AM 35.6 °F 30.7 °F 10.4 °F 35% 30.40 in 10.0 mi NW 5.8 mph - N/A   Unknown
6:55 AM 37.4 °F - 10.4 °F 33% 30.41 in 10.0 mi Calm Calm - N/A   Unknown
7:15 AM 35.6 °F 29.9 °F 10.4 °F 35% 30.41 in 10.0 mi NW 6.9 mph - N/A   Unknown
7:35 AM 39.2 °F 33.6 °F 10.4 °F 31% 30.42 in 10.0 mi NW 8.1 mph - N/A   Unknown
7:55 AM 41.0 °F 36.4 °F 10.4 °F 29% 30.42 in 10.0 mi NW 6.9 mph - N/A   Unknown
8:15 AM 44.6 °F 41.4 °F 10.4 °F 25% 30.43 in 10.0 mi NW 5.8 mph - N/A   Unknown
8:35 AM 46.4 °F 43.5 °F 10.4 °F 23% 30.43 in 10.0 mi NW 5.8 mph - N/A   Unknown
8:55 AM 46.4 °F 41.5 °F 10.4 °F 23% 30.43 in 10.0 mi NW 10.4 mph - N/A   Unknown
9:15 AM 46.4 °F 42.4 °F 10.4 °F 23% 30.43 in 10.0 mi NW 8.1 mph - N/A   Unknown
9:35 AM 48.2 °F - 10.4 °F 22% 30.43 in 10.0 mi NW 8.1 mph - N/A   Unknown
9:55 AM 48.2 °F - 10.4 °F 22% 30.43 in 10.0 mi NW 8.1 mph - N/A   Unknown
10:15 AM 48.2 °F - 10.4 °F 22% 30.42 in 10.0 mi WNW 9.2 mph - N/A   Unknown
10:35 AM 50.0 °F - 10.4 °F 20% 30.41 in 10.0 mi WNW 9.2 mph - N/A   Unknown
10:55 AM 51.8 °F - 10.4 °F 19% 30.40 in 10.0 mi NW 8.1 mph - N/A   Unknown
11:15 AM 53.6 °F - 10.4 °F 18% 30.38 in 10.0 mi NNW 9.2 mph - N/A   Unknown
11:35 AM 55.4 °F - 10.4 °F 17% 30.37 in 10.0 mi NE 6.9 mph - N/A   Unknown
11:55 AM 55.4 °F - 8.6 °F 15% 30.36 in 10.0 mi NNE 8.1 mph - N/A   Unknown
12:15 PM 57.2 °F - 8.6 °F 14% 30.34 in 10.0 mi NE 8.1 mph - N/A   Unknown
12:35 PM 55.4 °F - 8.6 °F 15% 30.33 in 10.0 mi NE 10.4 mph - N/A   Unknown
12:55 PM 57.2 °F - 8.6 °F 14% 30.32 in 10.0 mi NE 10.4 mph - N/A   Unknown
1:15 PM 57.2 °F - 8.6 °F 14% 30.31 in 10.0 mi NE 9.2 mph - N/A   Unknown
1:35 PM 57.2 °F - 8.6 °F 14% 30.31 in 10.0 mi NE 9.2 mph - N/A   Unknown
1:55 PM 57.2 °F - 8.6 °F 14% 30.30 in 10.0 mi North 9.2 mph - N/A   Unknown
2:55 PM 59.0 °F - 8.6 °F 14% 30.29 in 10.0 mi NNE 5.8 mph - N/A   Unknown
3:35 PM 59.0 °F - 8.6 °F 14% 30.29 in 10.0 mi NNE 9.2 mph - N/A   Unknown
5:15 PM 50.0 °F - 10.4 °F 20% 30.30 in 10.0 mi North 8.1 mph - N/A   Unknown
5:55 PM 53.6 °F - 8.6 °F 16% 30.30 in 10.0 mi North 6.9 mph - N/A   Unknown
6:15 PM 50.0 °F - 10.4 °F 20% 30.31 in 10.0 mi North 5.8 mph - N/A   Unknown
6:55 PM 51.8 °F - 8.6 °F 18% 30.31 in 10.0 mi NNW 5.8 mph - N/A   Unknown
7:15 PM 50.0 °F - 8.6 °F 19% 30.31 in 10.0 mi North 5.8 mph - N/A   Unknown
7:35 PM 48.2 °F - 10.4 °F 22% 30.30 in 10.0 mi North 8.1 mph - N/A   Unknown
7:55 PM 46.4 °F 42.9 °F 10.4 °F 23% 30.30 in 10.0 mi North 6.9 mph - N/A   Unknown
9:15 PM 48.2 °F - 10.4 °F 22% 30.31 in 10.0 mi NW 5.8 mph - N/A   Unknown
9:35 PM 44.6 °F 41.4 °F 10.4 °F 25% 30.31 in 10.0 mi NW 5.8 mph - N/A   Unknown
9:55 PM 44.6 °F - 12.2 °F 27% 30.31 in 10.0 mi Calm Calm - N/A   Unknown
10:15 PM 46.4 °F 41.9 °F 10.4 °F 23% 30.31 in 10.0 mi NNE 9.2 mph - N/A   Unknown
10:35 PM 44.6 °F 41.4 °F 10.4 °F 25% 30.31 in 10.0 mi NNW 5.8 mph - N/A   Unknown
10:55 PM 48.2 °F - 10.4 °F 22% 30.31 in 10.0 mi North 10.4 mph - N/A   Unknown
11:15 PM 46.4 °F 41.9 °F 10.4 °F 23% 30.31 in 10.0 mi NNW 9.2 mph - N/A   Unknown
11:35 PM 46.4 °F 42.9 °F 10.4 °F 23% 30.31 in 10.0 mi NW 6.9 mph - N/A   Unknown
11:55 PM 42.8 °F 37.0 °F 10.4 °F 27% 30.31 in 10.0 mi NW 10.4 mph - N/A   Unknown